Wind_Speed
17 17 17 17 17 17 17 19 19 18 17 15 13 11 10 10 10 10 10 10 9 8 8 8 8 8 7 6 6 6 5 5 5 4 4 4 4 5 5 5 6 7 7 8 8 8 8 8 7
18 17 17 18 18 18 19 20 20 19 18 17 15 13 11 11 12 12 11 11 10 10 10 10 9 9 8 8 7 7 7 7 6 6 5 5 6 5 5 5 6 6 7 7 8 8 8 8 7
18 18 18 18 18 19 21 22 22 21 19 18 15 14 13 13 13 14 14 13 13 12 11 11 11 10 9 9 9 9 9 8 8 7 7 7 7 7 6 6 7 7 7 8 8 8 8 8 7
17 18 18 18 20 22 23 23 22 22 20 18 17 15 14 14 14 15 15 16 16 14 13 13 12 11 11 11 11 10 10 10 9 9 8 8 8 8 8 8 8 8 8 8 8 8 8 8 8
17 17 17 19 21 23 25 25 24 23 21 20 18 17 15 15 15 16 17 17 17 16 15 14 13 13 13 13 13 12 12 11 11 11 10 10 9 9 9 9 9 9 10 10 10 9 9 9 9
16 16 18 20 23 25 26 26 26 25 23 21 19 18 16 16 16 17 18 19 18 18 17 15 15 15 14 14 15 14 13 13 13 12 12 11 11 11 11 11 11 11 11 11 11 11 10 10 10
16 17 19 22 25 26 28 27 26 25 23 21 20 19 19 18 18 18 18 19 19 18 17 16 16 16 15 14 15 16 15 15 15 14 13 13 13 13 13 13 13 13 14 13 13 13 12 12 12
17 18 21 24 26 28 28 27 26 25 23 21 20 19 19 19 20 20 19 19 19 18 17 17 16 17 17 16 16 17 16 16 16 15 15 15 15 14 15 15 15 15 15 15 15 14 14 14 13
17 19 22 26 28 29 29 28 26 25 23 22 20 19 19 20 20 19 19 19 18 18 17 17 17 17 18 18 17 18 17 17 17 17 17 16 16 16 16 16 16 16 16 16 16 16 16 15 15
18 20 23 27 29 30 29 28 27 26 24 23 21 19 19 19 18 18 18 17 17 17 16 18 18 19 20 20 19 19 18 18 18 18 18 17 17 17 17 18 18 18 17 17 17 17 17 17 17
19 21 24 27 29 30 30 29 27 26 25 23 21 20 19 19 19 18 17 16 16 17 18 18 19 20 22 22 21 19 19 19 18 18 18 18 18 18 18 18 19 19 19 19 19 19 19 19 18
21 23 25 27 29 30 30 29 28 26 24 23 22 21 19 18 19 18 17 16 17 17 17 18 19 20 20 23 23 22 21 20 19 19 19 20 20 20 20 20 19 20 20 20 20 20 20 20 19
23 25 26 28 30 30 29 29 28 26 25 23 22 20 18 18 17 17 17 17 17 16 17 17 16 17 17 19 21 21 21 21 21 20 21 21 21 21 22 22 21 21 21 21 21 21 21 20 20
23 25 26 27 28 29 30 29 28 27 25 23 22 20 18 18 17 17 17 16 16 15 15 15 14 15 16 19 20 22 22 22 21 22 22 23 23 22 22 22 22 22 22 22 22 22 22 22 22
23 24 25 26 27 29 29 28 27 25 24 23 21 20 19 18 17 17 18 17 16 16 16 16 15 15 17 19 21 24 24 23 23 23 23 22 22 23 22 22 23 23 23 23 24 24 24 23 23
24 24 25 25 27 28 28 27 26 24 23 21 20 19 18 17 17 17 16 16 16 16 16 16 14 15 17 19 21 23 24 24 24 24 23 23 24 24 24 23 24 25 24 25 25 26 25 25 24
23 24 25 26 26 27 26 25 25 23 21 20 19 18 18 18 18 17 16 16 16 16 15 14 14 15 16 17 20 20 22 24 24 24 24 24 25 25 25 24 25 25 25 25 26 26 26 26 25
22 23 24 25 25 25 25 24 24 23 21 19 18 18 17 17 17 15 14 15 15 16 14 13 14 15 16 17 18 20 21 22 24 24 24 24 25 24 25 24 24 26 26 26 26 26 27 27 26
22 23 23 24 25 24 23 22 22 21 19 18 17 17 16 16 15 14 14 14 15 15 14 14 14 14 15 17 17 18 20 21 23 24 24 24 24 24 24 24 25 25 25 26 26 27 27 27 28
20 21 22 23 24 23 22 21 20 19 18 17 16 16 16 15 15 15 15 15 15 14 14 16 15 15 15 15 16 18 19 20 20 21 22 22 22 23 23 24 25 25 25 26 26 26 27 27 27
19 19 20 21 23 23 22 21 21 20 18 17 15 15 15 15 16 17 17 16 14 14 14 14 15 16 16 16 17 18 18 18 19 20 20 21 22 23 23 24 25 26 27 27 27 27 27 28 28
18 19 20 20 21 21 21 21 20 19 18 16 15 14 14 15 15 16 15 15 14 14 14 14 14 15 16 17 18 19 18 19 19 19 20 21 22 23 24 25 25 26 27 27 28 27 28 28 29
17 18 19 20 19 20 20 20 18 18 17 15 15 15 15 15 16 16 15 16 15 15 15 15 15 16 17 17 18 18 19 19 20 20 22 22 23 24 25 26 26 27 27 28 28 28 28 29 30
17 18 18 18 17 18 18 19 17 16 16 15 15 15 16 16 17 17 17 17 17 17 17 17 17 17 17 18 19 19 20 21 21 22 23 23 24 24 25 25 26 26 27 28 27 28 28 29 30
16 17 17 17 17 17 17 17 15 15 15 15 15 15 16 18 18 19 19 18 18 18 18 18 18 19 20 21 21 22 22 23 23 24 24 24 24 25 25 26 27 27 27 27 27 28 29 29 30
16 16 17 17 17 17 17 16 14 14 15 15 15 16 17 18 19 19 19 19 19 19 19 20 21 22 23 23 24 24 25 25 25 25 25 25 26 26 26 27 27 28 28 28 28 28 29 30 29
15 16 16 17 17 17 16 15 14 14 14 15 15 16 16 17 19 19 19 20 20 21 22 23 24 25 25 25 26 27 27 27 27 27 27 27 27 27 27 27 28 28 28 28 29 28 28 28 29
14 14 15 16 17 17 16 16 15 16 15 15 16 16 17 18 18 19 19 20 22 23 24 24 26 27 27 27 28 28 28 28 28 28 28 28 28 28 28 28 28 29 29 29 29 29 28 28 28
14 14 15 16 16 16 16 15 15 15 15 16 16 16 17 18 19 19 20 21 22 23 25 26 27 28 28 28 28 28 28 28 29 29 29 29 28 28 29 29 29 29 29 29 29 29 28 28 27
15 14 15 15 15 15 16 15 15 15 15 16 16 16 17 18 19 19 21 22 23 25 25 26 26 27 28 28 29 29 29 29 29 29 30 30 30 30 30 30 30 29 29 29 29 28 28 27 27
Wind_Direction
244 241 238 237 237 237 236 239 241 244 247 249 252 256 264 273 281 286 291 295 294 287 284 278 274 262 254 248 244 240 236 233 236 245 265 281 295 308 316 323 326 333 339 342 345 350 349 347 345
242 240 237 235 233 233 234 238 240 244 245 248 252 255 260 273 283 288 292 294 293 288 282 274 267 260 254 250 247 246 246 243 245 251 262 273 284 292 297 304 313 321 330 334 336 339 340 338 336
239 236 234 232 230 230 233 237 240 243 245 248 251 254 260 270 280 289 290 292 291 284 277 266 263 260 255 253 251 250 249 247 250 256 261 268 276 279 283 291 299 309 318 323 327 327 327 326 325
237 233 230 227 225 227 231 236 239 243 243 246 249 253 262 273 283 289 292 290 289 278 272 263 257 255 252 251 249 248 248 248 251 254 257 262 268 272 277 285 292 299 306 310 313 315 314 314 313
235 230 226 222 223 226 231 236 238 241 244 247 250 257 268 277 283 288 291 292 289 276 269 263 257 256 251 247 246 245 247 249 250 254 257 260 265 270 276 282 288 292 296 302 305 305 305 305 306
233 227 220 217 220 226 231 236 239 242 244 247 251 258 267 275 283 287 289 290 288 282 274 268 260 254 253 247 244 244 245 248 250 254 256 259 262 267 273 279 284 286 289 293 297 299 297 296 297
230 224 216 215 221 225 231 236 240 243 246 248 253 260 269 277 282 286 288 292 291 282 273 265 262 250 246 244 243 245 245 248 251 253 255 258 261 266 272 276 280 282 283 285 289 291 293 291 290
228 222 215 215 221 226 232 237 241 244 248 252 257 264 271 278 283 286 287 290 289 280 271 266 260 248 243 242 241 241 243 245 249 252 253 257 260 265 270 274 276 279 281 281 283 286 286 287 287
226 221 216 215 221 227 231 236 241 246 248 252 259 265 272 277 282 285 286 290 286 277 267 258 259 252 245 242 238 238 241 246 249 251 254 256 259 263 267 271 273 275 276 278 280 281 282 282 283
226 221 218 219 222 227 231 235 240 245 248 252 258 266 273 277 283 285 287 289 287 276 265 260 259 252 244 241 239 237 241 246 248 251 254 256 259 262 266 269 270 270 271 273 276 279 279 279 280
223 221 222 222 224 227 231 235 240 245 248 252 259 267 275 279 282 286 286 287 292 284 275 265 257 253 244 239 239 238 238 242 247 249 253 256 259 261 263 266 267 267 269 271 273 276 276 276 278
224 222 223 223 224 227 232 237 241 244 248 253 259 266 274 280 281 284 286 287 287 282 279 271 260 255 251 241 239 239 239 241 245 248 251 255 257 259 260 262 264 265 267 270 271 272 272 272 274
226 225 225 225 227 229 233 237 242 246 251 255 260 266 272 278 283 286 289 288 287 282 278 275 267 265 260 245 241 240 241 243 244 247 251 253 256 257 259 260 262 264 267 268 268 270 269 270 270
228 228 227 228 229 231 234 238 243 249 254 257 262 265 270 275 281 282 284 285 285 280 280 280 274 271 264 253 246 241 239 241 244 247 250 253 256 258 260 262 261 263 264 265 267 269 270 270 270
229 229 228 229 230 232 236 240 245 250 255 258 263 266 270 275 279 277 279 282 285 284 285 282 274 271 263 255 247 243 240 241 244 247 250 253 256 258 261 262 262 263 265 265 267 267 270 270 270
230 229 227 228 230 233 237 240 244 247 251 256 260 265 270 274 277 276 277 280 283 285 282 275 270 266 263 256 249 243 241 241 244 248 250 254 257 259 262 263 262 263 265 266 267 267 269 270 270
231 229 228 228 229 232 235 238 240 244 248 254 260 264 269 273 276 276 276 279 283 285 277 267 267 267 263 252 243 243 246 246 246 248 251 255 257 260 262 262 263 263 265 267 267 267 267 268 267
229 227 227 227 230 232 235 236 239 243 248 254 260 265 269 274 276 275 277 280 281 283 277 271 271 267 259 253 250 249 250 249 249 249 251 254 257 258 260 262 265 266 266 267 267 267 266 265 265
228 227 225 225 230 234 235 236 239 244 249 254 259 264 269 274 276 277 281 284 284 285 279 277 273 267 262 255 254 252 252 252 250 249 252 259 261 261 262 265 266 266 266 267 268 267 265 265 264
225 226 224 226 231 232 234 237 240 244 247 253 258 262 266 270 274 276 280 281 281 278 278 273 269 265 261 258 256 259 260 258 259 256 258 260 263 263 265 266 266 264 265 267 267 266 265 265 264
221 222 221 225 230 233 236 239 242 244 249 254 258 263 267 270 273 276 280 277 273 274 277 275 268 264 265 265 265 265 265 267 266 264 264 263 266 266 266 266 266 265 265 266 267 268 265 265 265
220 220 221 225 229 233 237 242 243 243 249 255 261 265 265 267 271 276 279 271 270 276 278 273 270 267 265 267 269 269 271 272 271 269 268 270 270 269 268 269 267 266 265 266 267 267 265 263 264
219 222 224 228 230 234 239 243 242 240 246 255 260 261 265 268 269 272 274 274 270 275 278 276 273 272 272 273 273 273 274 276 275 274 273 271 270 270 270 270 269 269 269 268 268 268 267 264 264
220 220 225 230 234 237 239 244 244 245 250 256 262 262 267 267 271 272 274 275 274 275 277 278 277 277 278 277 277 276 276 277 278 276 275 273 272 271 270 271 270 270 270 270 270 270 270 267 265
223 224 227 231 236 241 242 245 248 251 253 258 264 266 266 269 272 275 275 276 278 276 277 278 279 281 281 280 280 278 278 278 277 277 276 274 273 272 270 270 270 270 270 271 271 271 270 269 267
229 231 235 240 241 244 246 251 257 258 259 265 265 267 268 270 271 275 276 276 278 280 278 278 280 282 282 281 280 279 278 278 277 276 276 275 274 272 271 270 270 270 271 272 272 271 270 268 268
234 237 240 244 246 247 252 258 262 267 272 274 273 271 271 274 274 274 275 277 278 280 281 281 280 281 281 280 279 277 277 276 275 275 275 274 273 271 271 271 270 270 271 271 270 270 271 270 268
233 238 240 245 249 254 258 261 265 270 276 279 279 279 279 277 275 272 273 277 278 280 281 280 280 279 279 278 278 277 276 275 274 274 274 274 273 271 270 270 270 270 270 269 269 269 270 270 270
235 241 244 249 251 257 264 267 272 274 277 280 283 284 282 277 277 274 274 276 278 281 282 280 280 281 280 278 278 278 277 276 275 273 272 271 272 271 270 269 270 269 268 268 268 268 269 270 269
237 247 252 255 258 263 269 273 274 275 279 281 282 285 287 285 282 280 281 281 282 283 284 284 283 282 280 280 279 279 278 277 276 274 272 271 271 271 270 269 268 268 267 268 266 266 269 269 267
Height
5874 5875 5877 5878 5879 5880 5880 5880 5880 5881 5883 5884 5885 5886 5888 5889 5890 5893 5892 5890 5891 5892 5892 5893 5893 5894 5894 5895 5895 5897 5898 5899 5900 5901 5902 5902 5903 5903 5903 5904 5904 5904 5904 5904 5904 5904 5903 5903 5903
5871 5872 5875 5876 5877 5877 5878 5878 5878 5879 5881 5882 5883 5884 5885 5886 5887 5888 5888 5889 5889 5890 5891 5892 5892 5893 5893 5894 5894 5896 5897 5898 5899 5900 5901 5902 5902 5902 5903 5903 5903 5904 5904 5904 5904 5904 5904 5903 5903
5868 5870 5872 5873 5874 5875 5875 5875 5876 5877 5879 5880 5881 5882 5883 5884 5885 5886 5886 5887 5887 5888 5889 5890 5891 5891 5892 5893 5893 5894 5895 5896 5898 5899 5900 5900 5901 5901 5902 5902 5903 5903 5903 5904 5904 5904 5903 5903 5903
5865 5867 5869 5871 5871 5872 5872 5872 5874 5875 5877 5878 5879 5880 5881 5882 5883 5884 5884 5885 5885 5886 5886 5888 5888 5889 5890 5891 5892 5893 5894 5895 5896 5897 5898 5899 5899 5900 5901 5901 5901 5902 5902 5903 5903 5903 5903 5902 5902
5862 5864 5866 5867 5868 5868 5869 5869 5871 5873 5875 5876 5878 5878 5878 5880 5881 5881 5882 5882 5882 5882 5884 5885 5886 5887 5887 5888 5890 5891 5892 5893 5894 5895 5896 5897 5897 5898 5899 5900 5900 5900 5901 5901 5901 5902 5901 5901 5901
5859 5861 5863 5864 5864 5865 5866 5867 5869 5871 5873 5874 5876 5876 5877 5878 5879 5879 5879 5880 5880 5880 5882 5883 5883 5884 5885 5886 5887 5888 5889 5891 5892 5893 5893 5894 5895 5896 5897 5898 5898 5898 5899 5899 5899 5900 5900 5900 5900
5857 5858 5860 5861 5861 5862 5863 5864 5866 5868 5870 5872 5873 5874 5874 5875 5876 5877 5877 5877 5877 5878 5879 5879 5879 5880 5882 5883 5884 5886 5887 5888 5889 5890 5891 5892 5893 5894 5895 5895 5896 5896 5897 5897 5897 5897 5898 5898 5898
5853 5856 5856 5857 5858 5859 5860 5862 5864 5866 5868 5869 5871 5871 5872 5873 5873 5874 5874 5874 5874 5874 5875 5875 5875 5877 5878 5880 5881 5883 5884 5885 5886 5887 5888 5889 5891 5891 5892 5893 5893 5894 5894 5894 5894 5895 5895 5895 5895
5850 5853 5853 5854 5854 5856 5858 5859 5861 5863 5865 5866 5867 5869 5869 5870 5870 5871 5871 5871 5871 5871 5871 5871 5872 5874 5875 5876 5877 5879 5881 5882 5883 5885 5886 5887 5888 5889 5889 5890 5891 5891 5891 5892 5892 5892 5892 5892 5892
5847 5849 5849 5850 5851 5853 5855 5857 5859 5861 5862 5863 5864 5865 5866 5866 5867 5867 5867 5867 5867 5867 5867 5868 5867 5869 5871 5873 5874 5876 5877 5879 5880 5882 5883 5884 5885 5885 5886 5887 5887 5888 5888 5888 5889 5889 5889 5889 5889
5843 5845 5846 5847 5848 5850 5852 5854 5856 5858 5860 5861 5862 5862 5863 5863 5864 5864 5864 5864 5864 5864 5864 5864 5865 5866 5867 5868 5870 5872 5873 5875 5876 5878 5879 5881 5881 5882 5883 5883 5884 5884 5885 5885 5885 5886 5886 5886 5886
5840 5840 5842 5844 5845 5847 5849 5851 5853 5855 5857 5858 5859 5859 5860 5860 5861 5860 5860 5861 5861 5861 5861 5860 5861 5861 5862 5864 5866 5868 5869 5871 5872 5874 5875 5876 5877 5878 5879 5879 5880 5880 5881 5881 5881 5882 5882 5882 5882
5836 5837 5838 5841 5843 5845 5847 5848 5851 5852 5854 5855 5856 5856 5857 5857 5858 5858 5858 5858 5859 5859 5858 5857 5858 5859 5859 5860 5862 5864 5865 5867 5868 5869 5870 5872 5873 5873 5874 5875 5875 5876 5876 5877 5877 5877 5877 5878 5878
5831 5833 5835 5838 5840 5842 5844 5846 5848 5849 5850 5852 5853 5853 5854 5854 5855 5855 5855 5855 5855 5855 5854 5854 5855 5855 5856 5856 5858 5859 5861 5862 5864 5864 5865 5867 5868 5869 5870 5870 5871 5871 5871 5872 5872 5872 5872 5873 5873
5828 5831 5833 5835 5837 5839 5841 5843 5845 5846 5847 5848 5849 5850 5851 5851 5852 5852 5852 5852 5852 5851 5850 5851 5851 5852 5852 5852 5853 5854 5855 5857 5858 5859 5861 5862 5863 5864 5865 5865 5866 5866 5866 5867 5867 5867 5867 5868 5868
5825 5827 5830 5831 5833 5835 5839 5840 5841 5842 5844 5845 5846 5847 5848 5848 5849 5849 5849 5849 5849 5848 5847 5847 5847 5847 5848 5847 5848 5849 5851 5852 5853 5855 5856 5857 5858 5859 5860 5860 5861 5861 5861 5862 5862 5862 5862 5863 5863
5821 5823 5825 5827 5829 5831 5834 5836 5838 5839 5840 5841 5843 5844 5844 5845 5845 5845 5845 5845 5845 5844 5843 5843 5843 5843 5843 5843 5844 5845 5846 5847 5848 5850 5851 5852 5852 5853 5854 5855 5855 5855 5856 5856 5856 5856 5857 5857 5858
5818 5820 5822 5824 5826 5828 5830 5833 5834 5836 5837 5838 5840 5840 5841 5842 5841 5841 5841 5841 5841 5840 5839 5839 5839 5839 5839 5840 5840 5841 5842 5843 5844 5844 5845 5847 5847 5848 5849 5849 5849 5849 5850 5850 5850 5850 5851 5852 5852
5814 5817 5819 5822 5823 5825 5827 5829 5831 5833 5834 5835 5836 5837 5838 5838 5838 5838 5837 5837 5837 5836 5835 5835 5835 5836 5836 5836 5837 5837 5838 5838 5838 5839 5840 5841 5842 5842 5843 5843 5843 5843 5844 5844 5844 5844 5845 5846 5846
5811 5814 5817 5819 5820 5823 5824 5826 5828 5830 5831 5832 5833 5834 5834 5835 5834 5834 5834 5833 5833 5833 5832 5832 5832 5832 5832 5832 5833 5834 5834 5834 5834 5834 5835 5836 5836 5837 5837 5837 5837 5837 5838 5838 5838 5838 5838 5839 5840
5809 5812 5814 5816 5818 5820 5822 5824 5826 5827 5828 5829 5830 5830 5831 5831 5830 5830 5830 5829 5829 5829 5829 5829 5829 5828 5828 5829 5829 5829 5829 5829 5829 5829 5830 5830 5830 5831 5831 5831 5831 5831 5831 5831 5832 5832 5832 5833 5833
5807 5810 5812 5814 5816 5817 5820 5821 5823 5824 5826 5826 5827 5827 5827 5827 5826 5826 5826 5825 5825 5825 5825 5825 5825 5825 5825 5825 5825 5825 5824 5824 5824 5824 5824 5824 5824 5824 5824 5824 5824 5824 5824 5824 5825 5825 5825 5826 5826
5806 5807 5809 5811 5813 5815 5816 5818 5820 5821 5823 5824 5824 5824 5824 5823 5823 5823 5823 5822 5822 5822 5822 5821 5821 5821 5821 5820 5820 5820 5820 5819 5819 5818 5818 5818 5818 5818 5818 5818 5818 5817 5817 5817 5818 5818 5818 5818 5819
5804 5806 5807 5809 5810 5812 5813 5815 5817 5818 5820 5820 5820 5820 5819 5819 5819 5819 5819 5818 5818 5817 5817 5817 5816 5816 5815 5815 5814 5814 5814 5813 5813 5812 5811 5811 5811 5811 5811 5810 5810 5810 5810 5810 5810 5810 5811 5811 5812
5802 5804 5806 5807 5808 5809 5811 5812 5815 5815 5816 5816 5816 5815 5815 5815 5814 5814 5814 5814 5813 5813 5812 5811 5811 5810 5809 5809 5808 5808 5807 5807 5806 5805 5804 5804 5804 5803 5803 5803 5803 5803 5803 5803 5803 5803 5803 5803 5804
5800 5802 5804 5805 5806 5807 5808 5809 5811 5812 5812 5812 5812 5811 5811 5810 5810 5810 5809 5809 5809 5808 5807 5806 5805 5804 5803 5803 5802 5801 5800 5800 5799 5798 5797 5797 5796 5796 5796 5796 5796 5795 5795 5795 5795 5795 5795 5796 5796
5798 5799 5801 5803 5803 5804 5805 5806 5807 5808 5808 5808 5808 5807 5807 5806 5805 5805 5804 5804 5803 5802 5802 5801 5799 5798 5797 5796 5795 5794 5793 5792 5791 5790 5790 5789 5789 5788 5788 5788 5788 5788 5788 5787 5788 5788 5788 5788 5789
5796 5797 5799 5800 5800 5801 5802 5803 5804 5804 5804 5804 5803 5802 5801 5801 5800 5799 5798 5798 5797 5796 5795 5793 5792 5791 5790 5788 5787 5786 5785 5784 5783 5782 5781 5781 5780 5780 5780 5780 5780 5779 5779 5779 5780 5780 5780 5781 5781
5794 5795 5796 5796 5797 5798 5799 5802 5801 5800 5800 5799 5799 5798 5796 5795 5794 5793 5792 5791 5790 5789 5788 5786 5784 5783 5781 5780 5779 5778 5777 5776 5775 5774 5773 5772 5772 5771 5771 5771 5771 5771 5771 5771 5772 5772 5772 5773 5773
5790 5792 5793 5794 5795 5795 5796 5800 5797 5796 5796 5795 5794 5793 5792 5790 5789 5788 5786 5785 5784 5782 5781 5779 5777 5775 5774 5772 5771 5770 5768 5767 5766 5765 5764 5763 5763 5762 5762 5762 5763 5763 5763 5763 5764 5764 5765 5765 5766